User: anonymous   Login
Location: Unspecified
(0.0000°N, 0.0000°E)
Time: 23:39:48
(UTC+02:00)
Language:

Gurwin Techsat 1B - Orbit

View from above orbital plane
View from above orbital plane
View from above satellite
View from above satellite

Ground track
Ground track

The orbit data is extracted from the following two-line orbital elements,

1 25397U 98043D   17233.41757102 -.00000014  00000-0  12828-4 0  9994
2 25397  98.6129 174.3910 0001819 131.0686 229.0650 14.23626649993077
Epoch (UTC): 21 August 2017 10:01:18
Eccentricity: 0.0001819
inclination: 98.6129°
perigee height: 812 km
apogee height: 814 km
right ascension of ascending node: 174.3910°
argument of perigee: 131.0686°
revolutions per day: 14.23626649
mean anomaly at epoch: 229.0650°
orbit number at epoch: 99307

The dashed part of the orbit path shows where the satellite is in the earth's shadow,  

DLR